Content
SEND FEEDBACK

Daily
Averages
Monthly
Summary
United States of America

CENTERBURG, OHIO


Home > North America > United States > Ohio
Elevation: 1187 feet     Latitude: 40 17N     Longitude: 082 39W

WEATHER
 
SELECT A DAY
Number of Records: 209,499;   Date Range: 1/1/95 - 11/22/14
 
SHARE

PRINT THIS DATA

[ ← Previous Day ]
WEATHER ALMANAC - JANUARY 3, 2013
[ Next Day → ]
[ °C ]   °F
Weather ElementAverageHighLow
Temperature22.7 °F30.9 °F (1:51 pm)9 °F (6:51 am)
Dewpoint15.2 °F21.9 °F (7:51 pm)6.1 °F (6:51 am)
Humidity73.9 %96 % (2:51 am)51 % (12:51 pm)
Barometer30.26 in30.31 in (10:51 pm)30.18 in (2:51 pm)
Wind Speed7.6 mph15 mph (2:51 pm)
Weather ElementAverage
Visibility8.1 mi
Wind DirectionSSW (190.8 °)

Weather ElementTotal
Precipitation---
Heating Degree Days45.1 (Base 65)
Averaged from 24 records on January 3, 2013
WEATHER CONDITIONS BREAKOUT
WIND DIRECTION BREAKOUT
WEATHER BY HOUR - JANUARY 3, 2013
[ °C ]   °F
Local TimeTemperatureDewpointHumidityBarometerVisibilityWind DirectionWind SpeedGust SpeedPrecipitationEventsConditions
1:51 AM15.1 °F10.9 °F84 %30.25 in6.0 miCalmClear
2:51 AM10.9 °F10.0 °F96 %30.25 in5.0 miSE (130°)3.5 mphClear
3:51 AM10.9 °F8.1 °F88 %30.24 in5.0 miCalmClear
4:51 AM10.9 °F8.1 °F88 %30.23 in5.0 miCalmClear
5:51 AM10.9 °F8.1 °F88 %30.24 in6.0 miCalmClear
6:51 AM9.0 °F6.1 °F88 %30.26 in6.0 miSSE (150°)5.8 mphClear
7:51 AM12.0 °F9.0 °F88 %30.26 in4.0 miSE (140°)3.5 mphScattered Clouds
8:51 AM12.9 °F10.0 °F88 %30.26 in4.0 miSouth (170°)3.5 mphScattered Clouds
9:51 AM18.0 °F12.0 °F78 %30.27 in6.0 miSSW (210°)6.9 mphHaze
10:51 AM21.0 °F12.0 °F68 %30.26 in8.0 miSW (230°)9.2 mphClear
11:51 AM24.1 °F12.9 °F62 %30.24 in10.0 miSW (220°)5.8 mphPartly Cloudy
12:51 PM28.9 °F12.9 °F51 %30.22 in10.0 miSW (220°)9.2 mphPartly Cloudy
1:51 PM30.9 °F15.1 °F52 %30.21 in10.0 miWSW (250°)12.7 mphPartly Cloudy
2:51 PM30.2 °F17.6 °F60 %30.18 in10.0 miWSW (250°)15.0 mphOvercast
3:51 PM30.9 °F19.0 °F61 %30.24 in10.0 miWest (280°)8.1 mphMostly Cloudy
4:51 PM30.0 °F21.0 °F69 %30.26 in10.0 miWSW (250°)11.5 mphMostly Cloudy
5:51 PM30.0 °F21.0 °F69 %30.27 in10.0 miWSW (240°)9.2 mphOvercast
6:51 PM30.2 °F21.2 °F69 %30.24 in10.0 miWSW (250°)10.4 mphOvercast
7:51 PM30.0 °F21.9 °F72 %30.29 in10.0 miWest (260°)11.5 mphOvercast
8:51 PM30.0 °F21.0 °F69 %30.30 in10.0 miWSW (250°)12.7 mphOvercast
9:15 PM30.2 °F21.2 °F69 %30.26 in10.0 miWest (260°)10.4 mphOvercast
9:51 PM30.0 °F21.9 °F72 %30.30 in10.0 miWest (280°)11.5 mphOvercast
10:51 PM30.0 °F21.0 °F69 %30.31 in10.0 miWest (280°)12.7 mphOvercast
11:51 PM28.9 °F21.9 °F75 %30.30 in10.0 miWest (260°)9.2 mphOvercast
Hourly data recorded from KCMH, located miles away from Centerburg, Ohio







STORIES FROM OUR PARTNERS